Location: Unspecified
(0.0000°N, 0.0000°E)
Time: 14:55:19
(UTC+00:00)

CZ-3B DEB - Visible Passes

Search period start: 16 December 2025 00:00
Search period end: 26 December 2025 00:00
Orbit: 1245 x 40674 km, 27.1° (Epoch: 15 December)

Date Brightness Start Highest point End Pass type
(mag) Time Alt. Az. Time Alt. Az. Time Alt. Az.
16 Dec ? 05:54:45 10° W 06:29:34 26° SW 06:37:41 10° SSE visible
16 Dec ? 20:01:43 10° WNW 21:46:44 34° NW 02:32:34 10° WNW visible
17 Dec ? 21:29:26 10° WNW 22:51:46 20° WNW 01:23:49 10° WNW visible
19 Dec ? 17:03:11 10° ENE 20:47:01 19° ENE 21:11:06 10° E visible
20 Dec ? 15:59:56 10° ENE 21:48:02 36° ENE 22:31:25 10° E visible
21 Dec ? 14:38:23 10° ENE 22:48:56 54° ENE 23:41:45 10° ESE visible
22 Dec ? 12:48:55 10° SW 23:49:47 71° NE 00:48:07 10° ESE visible
23 Dec ? 13:51:22 10° WSW 01:17:56 86° NE 01:52:28 10° ESE visible
24 Dec ? 14:54:31 10° WSW 21:27:58 61° N 02:55:39 10° SE visible
